C6007 KMOB-KMOB

Flight info

Callsign C6007
Flight time 1h 3m
Altitude 1000
Route DCT
Aircraft H60/L-VGD/C

Departure

Time 2026-04-11 18:51
Airport Mobile Regional Airport (KMOB)

Arrival

Time 2026-04-11 19:54
Airport Mobile Regional Airport (KMOB)
Time Latitude Longitude Altitude Speed Heading
2026-04-11 18:48 30.69383 -88.24207 219 ft 0 kts 360°
2026-04-11 18:50 30.69391 -88.24208 231 ft 7 kts 355°
2026-04-11 18:50 30.69574 -88.24370 425 ft 68 kts 301°
2026-04-11 18:51 30.69900 -88.24978 871 ft 103 kts 300°
2026-04-11 18:51 30.70110 -88.25859 939 ft 118 kts 268°
2026-04-11 18:51 30.69785 -88.26696 1049 ft 113 kts 225°
2026-04-11 18:51 30.69151 -88.27196 1036 ft 108 kts 197°
2026-04-11 18:52 30.68407 -88.27256 1032 ft 112 kts 174°
2026-04-11 18:52 30.67585 -88.27053 1030 ft 121 kts 169°
2026-04-11 18:52 30.66772 -88.26903 1036 ft 120 kts 173°
2026-04-11 18:52 30.65963 -88.26760 1037 ft 118 kts 173°
2026-04-11 18:53 30.65147 -88.26616 1039 ft 118 kts 173°
2026-04-11 18:53 30.64331 -88.26470 1039 ft 118 kts 173°
2026-04-11 18:53 30.63516 -88.26326 1041 ft 118 kts 173°
2026-04-11 18:53 30.62701 -88.26181 1043 ft 118 kts 173°
2026-04-11 18:54 30.61886 -88.26037 1044 ft 118 kts 173°
2026-04-11 18:54 30.61069 -88.25893 1044 ft 119 kts 173°
2026-04-11 18:54 30.60256 -88.25749 1042 ft 118 kts 173°
2026-04-11 18:54 30.59437 -88.25604 1044 ft 119 kts 173°
2026-04-11 18:55 30.58622 -88.25458 1041 ft 118 kts 173°
2026-04-11 18:55 30.57807 -88.25313 1044 ft 119 kts 173°
2026-04-11 18:55 30.57003 -88.25170 1042 ft 118 kts 173°
2026-04-11 18:55 30.56185 -88.25025 1043 ft 118 kts 173°
2026-04-11 18:56 30.55368 -88.24880 1044 ft 118 kts 173°
2026-04-11 18:56 30.54555 -88.24733 1044 ft 119 kts 173°
2026-04-11 18:56 30.53731 -88.24601 1041 ft 121 kts 174°
2026-04-11 18:56 30.52916 -88.24473 1045 ft 118 kts 174°
2026-04-11 18:57 30.52099 -88.24346 1044 ft 118 kts 174°
2026-04-11 18:57 30.51286 -88.24218 1045 ft 118 kts 174°
2026-04-11 18:57 30.50475 -88.24092 1042 ft 118 kts 174°
2026-04-11 18:57 30.49672 -88.23966 1044 ft 118 kts 174°
2026-04-11 18:58 30.48860 -88.23840 1045 ft 118 kts 174°
2026-04-11 18:58 30.48046 -88.23712 1042 ft 118 kts 174°
2026-04-11 18:58 30.47234 -88.23585 1044 ft 118 kts 174°
2026-04-11 18:58 30.46420 -88.23456 1046 ft 118 kts 174°
2026-04-11 18:59 30.45607 -88.23328 1043 ft 118 kts 174°
2026-04-11 18:59 30.44794 -88.23200 1045 ft 118 kts 174°
2026-04-11 18:59 30.43982 -88.23072 1042 ft 118 kts 174°
2026-04-11 18:59 30.43168 -88.22944 1043 ft 118 kts 174°
2026-04-11 19:00 30.42354 -88.22817 1043 ft 118 kts 174°
2026-04-11 19:00 30.41551 -88.22691 1043 ft 118 kts 174°
2026-04-11 19:00 30.40739 -88.22564 1046 ft 118 kts 174°
2026-04-11 19:00 30.39926 -88.22438 1045 ft 118 kts 174°
2026-04-11 19:01 30.39114 -88.22310 1044 ft 118 kts 174°
2026-04-11 19:01 30.38300 -88.22181 1043 ft 118 kts 174°
2026-04-11 19:01 30.37486 -88.22054 1044 ft 118 kts 174°
2026-04-11 19:01 30.36674 -88.21927 1042 ft 118 kts 174°
2026-04-11 19:02 30.35862 -88.21799 1043 ft 118 kts 174°
2026-04-11 19:02 30.35051 -88.21672 1043 ft 118 kts 174°
2026-04-11 19:02 30.34238 -88.21544 1043 ft 118 kts 174°
2026-04-11 19:02 30.33426 -88.21416 1043 ft 118 kts 174°
2026-04-11 19:03 30.32623 -88.21289 1043 ft 118 kts 174°
2026-04-11 19:03 30.31810 -88.21161 1043 ft 118 kts 174°
2026-04-11 19:03 30.31000 -88.21033 1043 ft 118 kts 174°
2026-04-11 19:03 30.30186 -88.20905 1043 ft 118 kts 174°
2026-04-11 19:04 30.29372 -88.20777 1043 ft 118 kts 174°
2026-04-11 19:04 30.28558 -88.20650 1043 ft 118 kts 174°
2026-04-11 19:04 30.27746 -88.20523 1044 ft 118 kts 174°
2026-04-11 19:04 30.26934 -88.20395 1043 ft 118 kts 174°
2026-04-11 19:05 30.26394 -88.20310 1043 ft 118 kts 174°
2026-04-11 19:05 30.25308 -88.20138 1043 ft 118 kts 174°
2026-04-11 19:05 30.24486 -88.20010 1041 ft 118 kts 174°
2026-04-11 19:05 30.23673 -88.19881 1044 ft 118 kts 174°
2026-04-11 19:06 30.22868 -88.19756 1043 ft 118 kts 174°
2026-04-11 19:06 30.22053 -88.19628 1044 ft 118 kts 174°
2026-04-11 19:06 30.21240 -88.19500 1043 ft 118 kts 174°
2026-04-11 19:06 30.20423 -88.19372 1044 ft 118 kts 174°
2026-04-11 19:07 30.19605 -88.19244 1043 ft 118 kts 174°
2026-04-11 19:07 30.18783 -88.19133 1044 ft 120 kts 176°
2026-04-11 19:07 30.17958 -88.19056 1043 ft 119 kts 180°
2026-04-11 19:07 30.17131 -88.19020 1043 ft 119 kts 180°
2026-04-11 19:08 30.16303 -88.18988 1043 ft 119 kts 180°
2026-04-11 19:08 30.15481 -88.18941 1044 ft 118 kts 179°
2026-04-11 19:08 30.14663 -88.18891 1044 ft 118 kts 179°
2026-04-11 19:08 30.13847 -88.18840 1043 ft 118 kts 179°
2026-04-11 19:09 30.13030 -88.18790 1044 ft 118 kts 179°
2026-04-11 19:09 30.12211 -88.18740 1043 ft 118 kts 179°
2026-04-11 19:09 30.11396 -88.18691 1043 ft 118 kts 179°
2026-04-11 19:09 30.10576 -88.18641 1043 ft 118 kts 179°
2026-04-11 19:10 30.09757 -88.18592 1044 ft 118 kts 179°
2026-04-11 19:10 30.08940 -88.18543 1044 ft 118 kts 179°
2026-04-11 19:10 30.08133 -88.18494 1044 ft 118 kts 179°
2026-04-11 19:10 30.07314 -88.18444 1043 ft 118 kts 179°
2026-04-11 19:11 30.06499 -88.18395 1043 ft 118 kts 179°
2026-04-11 19:11 30.05680 -88.18345 1043 ft 118 kts 179°
2026-04-11 19:11 30.04865 -88.18295 1043 ft 118 kts 179°
2026-04-11 19:11 30.04046 -88.18246 1044 ft 118 kts 179°
2026-04-11 19:12 30.03230 -88.18197 1044 ft 118 kts 179°
2026-04-11 19:12 30.02412 -88.18147 1043 ft 118 kts 179°
2026-04-11 19:12 30.01591 -88.18099 1043 ft 119 kts 179°
2026-04-11 19:12 30.00766 -88.18049 1043 ft 119 kts 179°
2026-04-11 19:13 29.99941 -88.17999 1043 ft 119 kts 179°
2026-04-11 19:13 29.99117 -88.17949 1044 ft 119 kts 179°
2026-04-11 19:13 29.98291 -88.17901 1043 ft 119 kts 179°
2026-04-11 19:13 29.97466 -88.17852 1043 ft 119 kts 179°
2026-04-11 19:14 29.96640 -88.17802 1044 ft 119 kts 179°
2026-04-11 19:14 29.95827 -88.17753 1043 ft 119 kts 179°
2026-04-11 19:14 29.95002 -88.17702 1044 ft 119 kts 179°
2026-04-11 19:14 29.94166 -88.17656 574 ft 125 kts 179°
2026-04-11 19:15 29.93413 -88.17569 294 ft 93 kts 39°
2026-04-11 19:15 29.92939 -88.17525 877 ft 37 kts 40°
2026-04-11 19:15 29.93011 -88.17305 905 ft 77 kts 32°
2026-04-11 19:15 29.93519 -88.16863 684 ft 106 kts 14°
2026-04-11 19:16 29.94256 -88.16607 374 ft 87 kts 278°
2026-04-11 19:16 29.94570 -88.16718 450 ft 24 kts 268°
2026-04-11 19:16 29.94686 -88.17080 296 ft 69 kts 274°
2026-04-11 19:16 29.94705 -88.17550 459 ft 47 kts 202°
2026-04-11 19:17 29.94547 -88.17758 476 ft 45 kts 160°
2026-04-11 19:17 29.94158 -88.17696 299 ft 63 kts 121°
2026-04-11 19:17 29.94025 -88.17417 122 ft 8 kts 26°
2026-04-11 19:17 29.94050 -88.17422 69 ft 3 kts 70°
2026-04-11 19:18 29.94063 -88.17362 72 ft 15 kts 88°
2026-04-11 19:18 29.94065 -88.17292 45 ft 4 kts 87°
2026-04-11 19:18 29.94066 -88.17268 33 ft 1 kts 86°
2026-04-11 19:18 29.94009 -88.17250 64 ft 26 kts 84°
2026-04-11 19:19 29.93942 -88.16888 632 ft 55 kts 84°
2026-04-11 19:19 29.94259 -88.16647 1087 ft 48 kts 290°
2026-04-11 19:19 29.94439 -88.16640 649 ft 18 kts 267°
2026-04-11 19:19 29.94531 -88.16672 430 ft 11 kts 267°
2026-04-11 19:20 29.94532 -88.16988 545 ft 79 kts 255°
2026-04-11 19:20 29.94200 -88.17618 475 ft 66 kts 143°
2026-04-11 19:20 29.94052 -88.17550 180 ft 66 kts 96°
2026-04-11 19:20 29.94074 -88.17264 74 ft 10 kts 89°
2026-04-11 19:21 29.94066 -88.17200 41 ft 8 kts 89°
2026-04-11 19:21 29.94066 -88.17178 33 ft 1 kts 89°
2026-04-11 19:21 29.94066 -88.17170 33 ft 1 kts 89°
2026-04-11 19:21 29.94045 -88.17156 95 ft 11 kts 94°
2026-04-11 19:22 29.94060 -88.17028 176 ft 12 kts 334°
2026-04-11 19:22 29.94195 -88.17169 232 ft 45 kts 251°
2026-04-11 19:22 29.94083 -88.17360 236 ft 21 kts 107°
2026-04-11 19:22 29.94071 -88.17198 56 ft 12 kts 92°
2026-04-11 19:23 29.94067 -88.17122 31 ft 1 kts 92°
2026-04-11 19:23 29.94067 -88.17114 32 ft 1 kts 92°
2026-04-11 19:23 29.94032 -88.17084 139 ft 23 kts 93°
2026-04-11 19:23 29.94085 -88.16801 337 ft 36 kts 352°
2026-04-11 19:24 29.94184 -88.16849 350 ft 42 kts 289°
2026-04-11 19:24 29.94333 -88.17442 204 ft 93 kts 216°
2026-04-11 19:24 29.94337 -88.17677 482 ft 10 kts 143°
2026-04-11 19:24 29.94203 -88.17451 256 ft 65 kts 126°
2026-04-11 19:25 29.94044 -88.17147 83 ft 7 kts 33°
2026-04-11 19:25 29.94064 -88.17128 66 ft 13 kts 83°
2026-04-11 19:25 29.94067 -88.17050 41 ft 6 kts 94°
2026-04-11 19:25 29.94040 -88.17018 112 ft 26 kts 97°
2026-04-11 19:26 29.94093 -88.16692 459 ft 17 kts 321°
2026-04-11 19:26 29.94174 -88.16890 167 ft 55 kts 287°
2026-04-11 19:26 29.94196 -88.17242 190 ft 16 kts 160°
2026-04-11 19:26 29.94122 -88.17181 58 ft 33 kts 139°
2026-04-11 19:27 29.94068 -88.17010 50 ft 10 kts 89°
2026-04-11 19:27 29.94066 -88.16988 33 ft 1 kts 84°
2026-04-11 19:27 29.94066 -88.16980 33 ft 1 kts 84°
2026-04-11 19:27 29.94066 -88.16972 33 ft 1 kts 84°
2026-04-11 19:28 29.94045 -88.16954 97 ft 18 kts 90°
2026-04-11 19:28 29.94080 -88.16677 338 ft 20 kts 320°
2026-04-11 19:28 29.94140 -88.16818 134 ft 32 kts 290°
2026-04-11 19:28 29.94094 -88.17039 145 ft 15 kts 120°
2026-04-11 19:29 29.94073 -88.16936 29 ft 5 kts 95°
2026-04-11 19:29 29.94065 -88.16940 50 ft 4 kts 91°
2026-04-11 19:29 29.94066 -88.16916 33 ft 1 kts 97°
2026-04-11 19:29 29.94157 -88.16798 218 ft 56 kts 52°
2026-04-11 19:30 29.94706 -88.16728 897 ft 100 kts 351°
2026-04-11 19:30 29.95326 -88.16917 1521 ft 92 kts 346°
2026-04-11 19:30 29.96016 -88.17097 1740 ft 108 kts 349°
2026-04-11 19:30 29.96505 -88.17200 2041 ft 105 kts 349°
2026-04-11 19:31 29.97484 -88.17404 1979 ft 109 kts 349°
2026-04-11 19:31 29.98231 -88.17560 1981 ft 109 kts 349°
2026-04-11 19:31 29.98977 -88.17717 1981 ft 109 kts 349°
2026-04-11 19:31 29.99726 -88.17874 1982 ft 109 kts 350°
2026-04-11 19:32 30.00472 -88.18030 1984 ft 109 kts 349°
2026-04-11 19:32 30.01216 -88.18186 1983 ft 109 kts 350°
2026-04-11 19:32 30.01717 -88.18291 1983 ft 109 kts 349°
2026-04-11 19:32 30.02451 -88.18444 1982 ft 108 kts 350°
2026-04-11 19:33 30.03190 -88.18599 1983 ft 108 kts 350°
2026-04-11 19:33 30.03931 -88.18755 1982 ft 108 kts 349°
2026-04-11 19:33 30.04672 -88.18911 1983 ft 108 kts 350°
2026-04-11 19:33 30.05414 -88.19067 1984 ft 108 kts 350°
2026-04-11 19:34 30.06157 -88.19222 1988 ft 108 kts 350°
2026-04-11 19:34 30.06898 -88.19377 1984 ft 108 kts 350°
2026-04-11 19:34 30.07641 -88.19533 1985 ft 108 kts 350°
2026-04-11 19:34 30.08385 -88.19688 1982 ft 109 kts 349°
2026-04-11 19:35 30.09133 -88.19845 1982 ft 109 kts 349°
2026-04-11 19:35 30.09882 -88.20001 1983 ft 110 kts 350°
2026-04-11 19:35 30.10633 -88.20158 1981 ft 110 kts 350°
2026-04-11 19:35 30.11387 -88.20271 1982 ft 109 kts 353°
2026-04-11 19:36 30.12149 -88.20285 1983 ft 110 kts 359°
2026-04-11 19:36 30.12907 -88.20302 1982 ft 110 kts 359°
2026-04-11 19:36 30.13672 -88.20319 1986 ft 110 kts 359°
2026-04-11 19:37 30.15205 -88.20354 1982 ft 110 kts 359°
2026-04-11 19:37 30.15971 -88.20370 1987 ft 110 kts 359°
2026-04-11 19:37 30.16735 -88.20387 1981 ft 110 kts 359°
2026-04-11 19:37 30.17501 -88.20405 1981 ft 110 kts 359°
2026-04-11 19:38 30.18267 -88.20423 1982 ft 110 kts 359°
2026-04-11 19:38 30.19033 -88.20440 1981 ft 110 kts 359°
2026-04-11 19:38 30.19799 -88.20458 1982 ft 110 kts 359°
2026-04-11 19:38 30.20563 -88.20475 1984 ft 110 kts 359°
2026-04-11 19:39 30.21329 -88.20491 1982 ft 110 kts 359°
2026-04-11 19:39 30.22095 -88.20508 1983 ft 110 kts 359°
2026-04-11 19:39 30.22853 -88.20525 1983 ft 110 kts 359°
2026-04-11 19:39 30.23618 -88.20542 1983 ft 110 kts 359°
2026-04-11 19:40 30.24384 -88.20560 1983 ft 110 kts 359°
2026-04-11 19:40 30.25153 -88.20577 1982 ft 111 kts 359°
2026-04-11 19:40 30.25925 -88.20594 1982 ft 111 kts 359°
2026-04-11 19:40 30.26697 -88.20611 1982 ft 110 kts 359°
2026-04-11 19:41 30.27464 -88.20629 1982 ft 110 kts 359°
2026-04-11 19:41 30.28232 -88.20646 1984 ft 110 kts 359°
2026-04-11 19:41 30.29000 -88.20664 1982 ft 110 kts 359°
2026-04-11 19:41 30.29768 -88.20682 1984 ft 110 kts 359°
2026-04-11 19:42 30.30537 -88.20699 1983 ft 110 kts 359°
2026-04-11 19:42 30.31306 -88.20717 1981 ft 110 kts 359°
2026-04-11 19:42 30.32074 -88.20734 1982 ft 110 kts 359°
2026-04-11 19:42 30.32840 -88.20751 1982 ft 110 kts 359°
2026-04-11 19:43 30.33598 -88.20768 1984 ft 110 kts 359°
2026-04-11 19:43 30.34366 -88.20785 1983 ft 111 kts 359°
2026-04-11 19:43 30.35139 -88.20803 1982 ft 111 kts 359°
2026-04-11 19:43 30.35907 -88.20820 1982 ft 111 kts 359°
2026-04-11 19:44 30.36677 -88.20838 1983 ft 111 kts 359°
2026-04-11 19:44 30.37455 -88.20854 1984 ft 112 kts 359°
2026-04-11 19:44 30.38238 -88.20873 1984 ft 113 kts 359°
2026-04-11 19:44 30.39023 -88.20890 1984 ft 113 kts 359°
2026-04-11 19:45 30.39807 -88.20910 1981 ft 112 kts 359°
2026-04-11 19:45 30.40588 -88.20927 1982 ft 112 kts 359°
2026-04-11 19:45 30.41364 -88.20945 1980 ft 112 kts 359°
2026-04-11 19:45 30.42129 -88.20962 1982 ft 111 kts 359°
2026-04-11 19:46 30.42903 -88.20980 1990 ft 112 kts 359°
2026-04-11 19:46 30.43687 -88.20997 1985 ft 114 kts 359°
2026-04-11 19:46 30.44481 -88.21011 1979 ft 113 kts 359°
2026-04-11 19:46 30.45264 -88.21029 1986 ft 113 kts 359°
2026-04-11 19:47 30.46051 -88.21049 1980 ft 113 kts 359°
2026-04-11 19:47 30.46835 -88.21067 1980 ft 112 kts 359°
2026-04-11 19:47 30.47617 -88.21087 1984 ft 113 kts 359°
2026-04-11 19:47 30.48400 -88.21105 1983 ft 112 kts 359°
2026-04-11 19:48 30.49180 -88.21124 1985 ft 113 kts 359°
2026-04-11 19:48 30.49957 -88.21140 1981 ft 113 kts 359°
2026-04-11 19:48 30.50738 -88.21157 1982 ft 112 kts 359°
2026-04-11 19:48 30.51517 -88.21171 1989 ft 113 kts 359°
2026-04-11 19:49 30.52307 -88.21181 1983 ft 113 kts 359°
2026-04-11 19:49 30.53089 -88.21200 1986 ft 112 kts 359°
2026-04-11 19:49 30.53871 -88.21217 1980 ft 112 kts 359°
2026-04-11 19:49 30.54644 -88.21234 1984 ft 112 kts 358°
2026-04-11 19:50 30.55418 -88.21240 1985 ft 110 kts 359°
2026-04-11 19:50 30.56187 -88.21252 1985 ft 111 kts 359°
2026-04-11 19:50 30.56955 -88.21273 1981 ft 110 kts 359°
2026-04-11 19:50 30.57721 -88.21291 1983 ft 110 kts 359°
2026-04-11 19:51 30.58489 -88.21308 1982 ft 111 kts 359°
2026-04-11 19:51 30.59264 -88.21325 1987 ft 112 kts 359°
2026-04-11 19:51 30.60041 -88.21344 1981 ft 111 kts 359°
2026-04-11 19:51 30.60815 -88.21362 1985 ft 112 kts 359°
2026-04-11 19:52 30.61597 -88.21377 1982 ft 112 kts 359°
2026-04-11 19:52 30.62368 -88.21394 1992 ft 111 kts 359°
2026-04-11 19:52 30.63141 -88.21410 1989 ft 111 kts 359°
2026-04-11 19:52 30.63905 -88.21427 1984 ft 110 kts 359°
2026-04-11 19:53 30.64661 -88.21444 1977 ft 108 kts 359°
2026-04-11 19:53 30.65426 -88.21479 1850 ft 116 kts 354°
2026-04-11 19:53 30.66185 -88.21856 1512 ft 125 kts 329°
2026-04-11 19:53 30.66923 -88.22431 1167 ft 132 kts 323°
2026-04-11 19:54 30.67630 -88.23096 684 ft 124 kts 315°
2026-04-11 19:54 30.68229 -88.23752 381 ft 115 kts 324°
2026-04-11 19:54 30.68746 -88.24173 267 ft 66 kts 326°
2026-04-11 19:54 30.69067 -88.24426 254 ft 46 kts 327°
2026-04-11 19:55 30.69253 -88.24597 234 ft 27 kts 326°
2026-04-11 19:55 30.69369 -88.24687 243 ft 21 kts 330°
2026-04-11 19:55 30.69465 -88.24625 236 ft 18 kts 101°
2026-04-11 19:55 30.69502 -88.24425 244 ft 30 kts 49°
2026-04-11 19:56 30.69535 -88.24341 234 ft 6 kts 185°
2026-04-11 19:56 30.69534 -88.24344 227 ft 1 kts 171°
2026-04-11 19:56 30.69526 -88.24342 221 ft 6 kts 172°
2026-04-11 19:56 30.69521 -88.24342 220 ft 0 kts 178°